Time,TemperatureF,DewpointF,PressureIn,WindDirection,WindDirectionDegrees,WindSpeedMPH,WindSpeedGustMPH,Humidity,HourlyPrecipIn,Conditions,Clouds,dailyrainin,SoftwareType,DateUTC
2013-11-10 00:12:00,51.3,31.2,29.86,SSW,202,7.8,-999.0,46,-99.99,,,0.00,Acu-Link.com,2013-11-10 05:12:00,
2013-11-10 00:27:00,51.6,31.5,29.85,WSW,247,12.5,-999.0,46,-99.99,,,0.00,Acu-Link.com,2013-11-10 05:27:00,
2013-11-10 00:42:00,51.8,31.7,29.86,WSW,247,7.3,-999.0,46,-99.99,,,0.00,Acu-Link.com,2013-11-10 05:42:00,
2013-11-10 00:57:00,50.9,31.9,29.85,SW,225,10.4,-999.0,48,-99.99,,,0.00,Acu-Link.com,2013-11-10 05:57:00,
2013-11-10 01:12:00,50.7,32.2,29.86,SW,225,4.7,-999.0,49,-99.99,,,0.00,Acu-Link.com,2013-11-10 06:12:00,
2013-11-10 01:27:00,50.2,32.3,29.85,WNW,292,12.5,-999.0,50,-99.99,,,0.00,Acu-Link.com,2013-11-10 06:27:00,
2013-11-10 01:42:00,50.7,32.7,29.85,WSW,247,5.8,-999.0,50,-99.99,,,0.00,Acu-Link.com,2013-11-10 06:42:00,
2013-11-10 01:57:00,50.7,33.2,29.86,SW,225,9.4,-999.0,51,-99.99,,,0.00,Acu-Link.com,2013-11-10 06:57:00,
2013-11-10 02:12:00,50.0,33.1,29.85,SW,225,7.3,-999.0,52,-99.99,,,0.00,Acu-Link.com,2013-11-10 07:12:00,
2013-11-10 02:27:00,49.6,33.6,29.85,WSW,247,6.3,-999.0,54,-99.99,,,0.00,Acu-Link.com,2013-11-10 07:27:00,
2013-11-10 02:42:00,49.5,34.5,29.85,SW,225,5.8,-999.0,56,-99.99,,,0.00,Acu-Link.com,2013-11-10 07:42:00,
2013-11-10 02:58:00,49.3,34.7,29.85,West,270,3.7,-999.0,57,-99.99,,,0.00,Acu-Link.com,2013-11-10 07:58:00,
2013-11-10 03:13:00,48.9,34.8,29.86,SW,225,9.9,-999.0,58,-99.99,,,0.00,Acu-Link.com,2013-11-10 08:13:00,
2013-11-10 03:28:00,48.7,34.6,29.86,SSW,202,4.7,-999.0,58,-99.99,,,0.00,Acu-Link.com,2013-11-10 08:28:00,
2013-11-10 03:43:00,48.4,35.2,29.85,SSW,202,4.7,-999.0,60,-99.99,,,0.00,Acu-Link.com,2013-11-10 08:43:00,
2013-11-10 03:58:00,47.7,35.3,29.85,SSW,202,5.3,-999.0,62,-99.99,,,0.00,Acu-Link.com,2013-11-10 08:58:00,
2013-11-10 04:13:00,47.5,35.5,29.86,WSW,247,5.3,-999.0,63,-99.99,,,0.00,Acu-Link.com,2013-11-10 09:13:00,
2013-11-10 04:28:00,47.3,35.7,29.86,South,180,10.4,-999.0,64,-99.99,,,0.00,Acu-Link.com,2013-11-10 09:28:00,
2013-11-10 04:44:00,47.1,35.9,29.86,SSW,202,6.8,-999.0,65,-99.99,,,0.00,Acu-Link.com,2013-11-10 09:44:00,
2013-11-10 04:59:00,46.8,36.0,29.86,West,270,5.8,-999.0,66,-99.99,,,0.00,Acu-Link.com,2013-11-10 09:59:00,
2013-11-10 05:14:00,46.8,36.4,29.86,West,270,7.3,-999.0,67,-99.99,,,0.00,Acu-Link.com,2013-11-10 10:14:00,
2013-11-10 05:29:00,46.4,36.0,29.86,West,270,5.8,-999.0,67,-99.99,,,0.00,Acu-Link.com,2013-11-10 10:29:00,
2013-11-10 05:44:00,45.7,36.1,29.86,West,270,4.2,-999.0,69,-99.99,,,0.00,Acu-Link.com,2013-11-10 10:44:00,
2013-11-10 05:59:00,45.3,36.1,29.86,SW,225,7.8,-999.0,70,-99.99,,,0.00,Acu-Link.com,2013-11-10 10:59:00,
2013-11-10 06:14:00,45.5,36.3,29.86,SW,225,10.4,-999.0,70,-99.99,,,0.00,Acu-Link.com,2013-11-10 11:14:00,
2013-11-10 06:29:00,45.1,35.9,29.86,SW,225,8.3,-999.0,70,-99.99,,,0.00,Acu-Link.com,2013-11-10 11:29:00,
2013-11-10 06:45:00,45.1,36.3,29.88,West,270,8.3,-999.0,71,-99.99,,,0.00,Acu-Link.com,2013-11-10 11:45:00,
2013-11-10 07:00:00,44.8,36.3,29.87,SSW,202,6.3,-999.0,72,-99.99,,,0.00,Acu-Link.com,2013-11-10 12:00:00,
2013-11-10 07:15:00,44.8,36.7,29.88,South,180,5.3,-999.0,73,-99.99,,,0.00,Acu-Link.com,2013-11-10 12:15:00,
2013-11-10 07:30:00,45.7,36.8,29.89,West,270,13.5,-999.0,71,-99.99,,,0.00,Acu-Link.com,2013-11-10 12:30:00,
2013-11-10 07:45:00,45.7,36.8,29.90,West,270,10.9,-999.0,71,-99.99,,,0.00,Acu-Link.com,2013-11-10 12:45:00,
2013-11-10 08:00:00,45.7,36.5,29.90,West,270,13.5,-999.0,70,-99.99,,,0.00,Acu-Link.com,2013-11-10 13:00:00,
2013-11-10 08:15:00,45.5,36.3,29.90,SW,225,8.9,-999.0,70,-99.99,,,0.00,Acu-Link.com,2013-11-10 13:15:00,
2013-11-10 08:30:00,45.7,36.5,29.91,West,270,5.3,-999.0,70,-99.99,,,0.00,Acu-Link.com,2013-11-10 13:30:00,
2013-11-10 08:45:00,46.0,36.8,29.92,West,270,6.3,-999.0,70,-99.99,,,0.00,Acu-Link.com,2013-11-10 13:45:00,
2013-11-10 09:01:00,46.0,36.8,29.92,West,270,9.9,-999.0,70,-99.99,,,0.00,Acu-Link.com,2013-11-10 14:01:00,
2013-11-10 09:16:00,47.8,35.0,29.91,WSW,247,16.6,-999.0,61,-99.99,,,0.00,Acu-Link.com,2013-11-10 14:16:00,
2013-11-10 09:31:00,47.3,34.1,29.92,SW,225,17.6,-999.0,60,-99.99,,,0.00,Acu-Link.com,2013-11-10 14:31:00,
2013-11-10 09:46:00,46.4,33.3,29.92,SSW,202,13.5,-999.0,60,-99.99,,,0.00,Acu-Link.com,2013-11-10 14:46:00,
2013-11-10 10:01:00,45.9,33.2,29.93,NNW,337,11.4,-999.0,61,-99.99,,,0.00,Acu-Link.com,2013-11-10 15:01:00,
2013-11-10 10:16:00,45.9,33.2,29.94,West,270,5.8,-999.0,61,-99.99,,,0.00,Acu-Link.com,2013-11-10 15:16:00,
2013-11-10 10:31:00,45.7,34.2,29.94,West,270,11.4,-999.0,64,-99.99,,,0.00,Acu-Link.com,2013-11-10 15:31:00,
2013-11-10 10:46:00,48.6,36.2,29.94,WSW,247,11.9,-999.0,62,-99.99,,,0.00,Acu-Link.com,2013-11-10 15:46:00,
2013-11-10 11:01:00,46.9,34.6,29.95,West,270,11.4,-999.0,62,-99.99,,,0.00,Acu-Link.com,2013-11-10 16:01:00,
2013-11-10 11:16:00,45.5,33.6,29.95,WSW,247,21.7,-999.0,63,-99.99,,,0.00,Acu-Link.com,2013-11-10 16:16:00,
2013-11-10 11:31:00,45.1,33.7,29.96,SSW,202,11.4,-999.0,64,-99.99,,,0.00,Acu-Link.com,2013-11-10 16:31:00,
2013-11-10 11:46:00,45.5,34.4,29.96,SW,225,13.5,-999.0,65,-99.99,,,0.00,Acu-Link.com,2013-11-10 16:46:00,
2013-11-10 12:01:00,45.7,33.0,29.97,WSW,247,12.5,-999.0,61,-99.99,,,0.00,Acu-Link.com,2013-11-10 17:01:00,
2013-11-10 12:16:00,44.6,32.8,29.97,West,270,11.9,-999.0,63,-99.99,,,0.00,Acu-Link.com,2013-11-10 17:16:00,
2013-11-10 12:32:00,44.1,33.1,29.98,West,270,13.0,-999.0,65,-99.99,,,0.00,Acu-Link.com,2013-11-10 17:32:00,
2013-11-10 12:47:00,43.7,33.1,29.99,SW,225,20.2,-999.0,66,-99.99,,,0.00,Acu-Link.com,2013-11-10 17:47:00,
2013-11-10 13:02:00,43.5,31.8,30.00,SSE,157,15.5,-999.0,63,-99.99,,,0.00,Acu-Link.com,2013-11-10 18:02:00,
2013-11-10 13:17:00,43.2,31.5,30.01,West,270,10.9,-999.0,63,-99.99,,,0.00,Acu-Link.com,2013-11-10 18:17:00,
2013-11-10 13:32:00,43.2,31.1,30.01,West,270,13.0,-999.0,62,-99.99,,,0.00,Acu-Link.com,2013-11-10 18:32:00,
2013-11-10 13:47:00,43.0,30.9,30.01,SW,225,11.9,-999.0,62,-99.99,,,0.00,Acu-Link.com,2013-11-10 18:47:00,
2013-11-10 14:02:00,43.3,30.8,30.01,West,270,15.5,-999.0,61,-99.99,,,0.00,Acu-Link.com,2013-11-10 19:02:00,
2013-11-10 14:17:00,43.7,29.9,30.02,West,270,12.5,-999.0,58,-99.99,,,0.00,Acu-Link.com,2013-11-10 19:17:00,
2013-11-10 14:32:00,43.5,29.3,30.03,West,270,14.0,-999.0,57,-99.99,,,0.00,Acu-Link.com,2013-11-10 19:32:00,
2013-11-10 14:47:00,43.3,28.7,30.03,West,270,12.5,-999.0,56,-99.99,,,0.00,Acu-Link.com,2013-11-10 19:47:00,
2013-11-10 15:02:00,43.3,29.1,30.03,West,270,9.4,-999.0,57,-99.99,,,0.00,Acu-Link.com,2013-11-10 20:02:00,
2013-11-10 15:17:00,43.2,29.4,30.04,West,270,9.9,-999.0,58,-99.99,,,0.00,Acu-Link.com,2013-11-10 20:17:00,
2013-11-10 15:32:00,43.0,29.7,30.05,West,270,14.5,-999.0,59,-99.99,,,0.00,Acu-Link.com,2013-11-10 20:32:00,
2013-11-10 15:47:00,43.0,29.7,30.05,West,270,9.4,-999.0,59,-99.99,,,0.00,Acu-Link.com,2013-11-10 20:47:00,
2013-11-10 16:03:00,42.8,29.9,30.06,West,270,10.4,-999.0,60,-99.99,,,0.00,Acu-Link.com,2013-11-10 21:03:00,
2013-11-10 16:18:00,42.6,29.7,30.07,West,270,10.4,-999.0,60,-99.99,,,0.00,Acu-Link.com,2013-11-10 21:18:00,
2013-11-10 16:33:00,42.6,30.1,30.08,West,270,8.9,-999.0,61,-99.99,,,0.00,Acu-Link.com,2013-11-10 21:33:00,
2013-11-10 16:48:00,42.4,29.9,30.08,WSW,247,8.9,-999.0,61,-99.99,,,0.00,Acu-Link.com,2013-11-10 21:48:00,
2013-11-10 17:03:00,42.3,29.8,30.09,West,270,7.8,-999.0,61,-99.99,,,0.00,Acu-Link.com,2013-11-10 22:03:00,
2013-11-10 17:18:00,42.1,30.0,30.09,West,270,5.3,-999.0,62,-99.99,,,0.00,Acu-Link.com,2013-11-10 22:18:00,
2013-11-10 17:33:00,42.1,30.0,30.10,West,270,8.9,-999.0,62,-99.99,,,0.00,Acu-Link.com,2013-11-10 22:33:00,
2013-11-10 17:48:00,41.9,30.2,30.11,West,270,11.4,-999.0,63,-99.99,,,0.00,Acu-Link.com,2013-11-10 22:48:00,
2013-11-10 18:03:00,41.9,30.2,30.12,West,270,8.3,-999.0,63,-99.99,,,0.00,Acu-Link.com,2013-11-10 23:03:00,
2013-11-10 18:18:00,41.7,30.0,30.12,West,270,8.3,-999.0,63,-99.99,,,0.00,Acu-Link.com,2013-11-10 23:18:00,
2013-11-10 18:33:00,41.5,30.2,30.12,South,180,8.9,-999.0,64,-99.99,,,0.00,Acu-Link.com,2013-11-10 23:33:00,
2013-11-10 18:49:00,41.4,30.1,30.12,SW,225,6.8,-999.0,64,-99.99,,,0.00,Acu-Link.com,2013-11-10 23:49:00,
2013-11-10 19:04:00,41.5,30.2,30.13,South,180,7.3,-999.0,64,-99.99,,,0.00,Acu-Link.com,2013-11-11 00:04:00,
2013-11-10 19:19:00,41.4,30.1,30.13,West,270,10.4,-999.0,64,-99.99,,,0.00,Acu-Link.com,2013-11-11 00:19:00,
2013-11-10 19:34:00,41.4,30.1,30.13,WSW,247,7.3,-999.0,64,-99.99,,,0.00,Acu-Link.com,2013-11-11 00:34:00,
2013-11-10 19:49:00,41.2,30.3,30.13,West,270,5.8,-999.0,65,-99.99,,,0.00,Acu-Link.com,2013-11-11 00:49:00,
2013-11-10 20:04:00,40.5,29.7,30.13,SW,225,7.8,-999.0,65,-99.99,,,0.00,Acu-Link.com,2013-11-11 01:04:00,
2013-11-10 20:19:00,39.7,29.3,30.13,WSW,247,7.8,-999.0,66,-99.99,,,0.00,Acu-Link.com,2013-11-11 01:19:00,
2013-11-10 20:35:00,39.0,29.3,30.14,WSW,247,5.8,-999.0,68,-99.99,,,0.00,Acu-Link.com,2013-11-11 01:35:00,
2013-11-10 20:50:00,38.8,29.2,30.14,West,270,5.8,-999.0,68,-99.99,,,0.00,Acu-Link.com,2013-11-11 01:50:00,
2013-11-10 21:05:00,38.1,28.8,30.15,West,270,4.7,-999.0,69,-99.99,,,0.00,Acu-Link.com,2013-11-11 02:05:00,
2013-11-10 21:20:00,37.8,28.9,30.15,SW,225,2.7,-999.0,70,-99.99,,,0.00,Acu-Link.com,2013-11-11 02:20:00,
2013-11-10 21:35:00,37.4,28.9,30.15,West,270,7.3,-999.0,71,-99.99,,,0.00,Acu-Link.com,2013-11-11 02:35:00,
2013-11-10 21:51:00,36.9,28.7,30.15,WSW,247,2.2,-999.0,72,-99.99,,,0.00,Acu-Link.com,2013-11-11 02:51:00,
2013-11-10 22:06:00,36.1,28.6,30.15,West,270,1.7,-999.0,74,-99.99,,,0.00,Acu-Link.com,2013-11-11 03:06:00,
2013-11-10 22:21:00,36.1,28.6,30.15,West,270,2.7,-999.0,74,-99.99,,,0.00,Acu-Link.com,2013-11-11 03:21:00,
2013-11-10 22:36:00,35.8,28.7,30.14,SSW,202,0.0,-999.0,75,-99.99,,,0.00,Acu-Link.com,2013-11-11 03:36:00,
2013-11-10 22:52:00,35.8,29.0,30.15,WSW,247,2.7,-999.0,76,-99.99,,,0.00,Acu-Link.com,2013-11-11 03:52:00,
2013-11-10 23:07:00,35.6,28.8,30.14,West,270,2.7,-999.0,76,-99.99,,,0.00,Acu-Link.com,2013-11-11 04:07:00,
2013-11-10 23:22:00,35.2,28.7,30.14,SSW,202,2.7,-999.0,77,-99.99,,,0.00,Acu-Link.com,2013-11-11 04:22:00,
2013-11-10 23:38:00,35.2,28.7,30.14,SW,225,2.7,-999.0,77,-99.99,,,0.00,Acu-Link.com,2013-11-11 04:38:00,
2013-11-10 23:53:00,35.1,28.9,30.15,SSE,157,0.0,-999.0,78,-99.99,,,0.00,Acu-Link.com,2013-11-11 04:53:00,